Weather Roundup
Issued by NWS Chicago, IL

Home | Current Version | Previous Version | Text Only | Print | Product List | Glossary Off
Versions: 1 2 3 4 5 6 7 8 9 10 11 12 13 14 15 16 17 18 19 20 21 22 23 24 25 26 27 28 29 30 31 32 33 34 35 36 37 38 39 40 41 42 43 44 45 46 47 48 49 50

000
NZUS59 KLOT 011112
HRRLOT

CHICAGO AREA WEATHER ROUNDUP
NATIONAL WEATHER SERVICE CHICAGO/ROMEOVILLE IL
600 AM CDT TUE SEP 01 2015

NOTE: "FAIR" INDICATES FEW OR NO CLOUDS BELOW 12,000 FEET WITH NO
SIGNIFICANT WEATHER AND/OR OBSTRUCTIONS TO VISIBILITY.

* THESE STATIONS ARE NOT UNDER NWS QUALITY CONTROL. THEY ALSO MAY NOT
  REPORT WEATHER SUCH AS PRECIPITATION OR FOG.

ILZ005-006-012>014-019>023-011200-
NORTHEAST ILLINOIS

CITY           SKY/WX    TMP DP  RH WIND       PRES   REMARKS
OHARE          CLEAR     70  68  93 CALM      30.04R
MIDWAY         CLEAR     74  69  85 S7        30.04R
AURORA         FOG       68  66  93 SE6       30.05S VSB 1/4
LANSING*       PTCLDY    68  67  97 S5        30.06R
JOLIET*        CLOUDY    70  69  98 CALM      30.05R FOG
WAUKEGAN       CLEAR     69  67  93 SW6       30.03R FOG
DUPAGE AIRPORT PTCLDY    69  67  93 S5        30.04S FOG
WHEELING       CLEAR     68  65  90 SE3       30.05R FOG
KANKAKEE*      PTCLDY    68  67  97 CALM      30.07S
MORRIS*        PTCLDY    69  68  97 CALM      30.04R FOG
LEWIS AIRPORT* MOCLDY    69  69  99 S5        30.05R FOG
NORTHERLY IS     N/A     73  68  84 S1          N/A
$$

WIZ051-052-058>065-066-070>072-011200-
SOUTHEAST WISCONSIN

CITY           SKY/WX    TMP DP  RH WIND       PRES   REMARKS
MILWAUKEE      CLEAR     69  66  90 SW6       30.02S FOG
KENOSHA*       CLEAR     69  67  93 SW5       30.04R
RACINE*        CLEAR     70  67  90 SW5       30.04S FOG
BURLINGTON     FOG       60  60  99 CALM      30.03S VSB 1/2
WAUKESHA       CLEAR     66  64  94 CALM      30.04R FOG
WEST BEND      MOCLDY    61  59  94 CALM      30.03R FOG
$$

INZ001>003-010>013-019-020-011200-
NORTHWEST INDIANA

CITY           SKY/WX    TMP DP  RH WIND       PRES   REMARKS
GARY*          PTCLDY    72  68  88 VRB5      30.06R
MICHIGAN CITY* NOT AVBL
RENSSELAER*    NOT AVBL
VALPARAISO     MOCLDY    69  66  90 CALM      30.08R FOG
$$

LMZ740>746-011200-
SOUTHERN LAKE MICHIGAN

STATION/POSITION TIME  SKY/WX   TEMP WIND        PRES    VSBY
                                AIR  DIR/SP/G
                 (UTC)          (F)  (DEG/KT/KT) (MB)    (MI)
HARRISON CRIB    1000            74  180/ 12/ 13   N/A
BURNHAM HARBOR   1100            74  180/  3/  6   N/A
CALUMET HARBOR   1000            72  180/  4/  5   N/A
BURNS HARBOR     1000            72  180/  8/ 11 1018.3R
MICHIGAN CITY    1000            75  170/ 11/ 13   N/A
$$

ABBREVIATIONS USED IN REMARKS
   TC - TEMPERATURE IN CELSIUS
  WCI - WIND CHILL INDEX
   HX - HEAT INDEX
  VSB - VISIBILITY
$$


USA.gov is the U.S. government's official web portal to all federal, state and local government web resources and services.